Starlink 30960

operational
NORAD ID: 58456 Int'l Des: 2023-183 Owner: SPXS Country: US Constellation: starlink
LEOCIRCULAR

Über Starlink 30960

Beschreibung wird geladen...

Live-Position

3D-Globus wird geladen...

Nächste Überflüge

Höhenverlauf

Altitude vs Time

uPlot chart will show altitude changes over time

Zweizeiliger Elementsatz

1 58456U 23183V 26035.50002314 .00184813 00000-0 35637-2 0 9997
2 58456 42.9936 143.1887 0018071 8.8195 95.9397 15.46271396 5925
Epoch: 4. Feb. 2026 • Age: 6 hours

Aktueller Status

Höhe 431.6 km
Geschwindigkeit 7.66 km/s
Subsatellitenpunkt -33.79°S, 58.65°E
Startdatum 28. Nov. 2023
Alter 2.1 years
Typ internet

Technische Details

Klassifizierung Payload
Masse 730.00 kg
Trockenmasse 700.00 kg
Gesamtmasse 730.00 kg
Länge 0.30 m
Durchmesser 4.10 m
Spannweite 29.00 m
Form Box + pan
Hersteller SPXS
Bus-Typ Starlink V2M
Phasenstatus In Orbit
Besitzer/Staat SPXS/US

Große Konstellationen

Loading constellations...